Regional Weather Roundup
Issued by NWS

Current Version | Previous Version | Text Only | Print | Product List | Glossary On
Versions: 1 2 3 4 5 6 7 8 9 10 11 12 13 14 15 16 17 18 19 20 21 22 23 24 25 26 27 28 29 30 31 32 33 34 35 36 37 38 39 40 41 42 43 44 45 46 47 48 49 50
000
ASUS43 KDMX 062107
RWRIA

WEATHER ROUNDUP FOR IOWA
NATIONAL WEATHER SERVICE DES MOINES IA
400 PM CDT WED MAY 06 2015

NOTE: "FAIR" INDICATES FEW OR NO CLOUDS BELOW 12,000 FEET WITH NO
SIGNIFICANT WEATHER AND/OR OBSTRUCTIONS TO VISIBILITY.

* - THESE STATIONS ARE NOT NWS STATIONS...THUS NOT UNDER NWS
QUALITY CONTROL.  THEY ALSO DO NOT REPORT WEATHER SUCH
AS PRECIPITATION OR FOG.

IAZ001>003-012>014-020>022-031>034-043>046-062200-
   NORTHWEST IOWA

CITY           SKY/WX    TMP DP  RH WIND       PRES   REMARKS
CARROLL *      PTSUNNY   75  59  57 S28       29.84F
CHEROKEE *     HVY RAIN  66  63  88 S9G28     29.83R
DENISON *      PTSUNNY   68  64  88 S14G28    29.81F FOG
LE MARS *      CLOUDY    64  61  88 S15G23    29.80S
ORANGE CITY *  LGT RAIN  63  63 100 S18G30    29.81R
SHELDON *      PTSUNNY   66 N/A N/A S24G33    29.79R HAZE
SIOUX CITY     CLOUDY    66  61  84 SE15      29.78F
SPENCER        PTSUNNY   74  59  59 S30G39    29.82S
STORM LAKE *   PTSUNNY   64  63  94 S15       29.85R
$$

IAZ055>058-069>071-079>083-090>094-062200-
   SOUTHWEST IOWA

CITY           SKY/WX    TMP DP  RH WIND       PRES   REMARKS
ATLANTIC *     SUNNY     73  59  60 S22G36    29.85F
AUDUBON *      SUNNY     73  61  64 S18G30    29.86F
CLARINDA *     PTSUNNY   72  59  64 SE18G24   29.88F
COUNCIL BLFS * CLOUDY    70  64  83 S25G35    29.82F
CRESTON *      MOSUNNY   68  61  77 S21       29.91F
HARLAN  *      MOSUNNY   73  64  73 S23G32    29.86F
LAMONI         CLOUDY    70  59  68 S16G25    29.94F
RED OAK *      PTSUNNY   72  61  68 S24G35    29.84F
SHENANDOAH *   PTSUNNY   72  61  68 S24G31    29.85F
$$

IAZ047>049-059>061-072>074-084-062200-
   CENTRAL IOWA

CITY           SKY/WX    TMP DP  RH WIND       PRES   REMARKS
AMES           PTSUNNY   75  58  55 S17G28    29.89F
ANKENY *       MOSUNNY   75  59  57 S16G26    29.91S
CHARITON *     SUNNY     70  59  68 S22       29.95F
DES MOINES     LGT RAIN  74  57  55 S20G31    29.92S
GRINNELL*      PTSUNNY   75  55  50 S21G30    29.96R
KNOXVILLE *    SUNNY     73  57  56 S23G31    29.94S
MARSHALLTOWN   PTSUNNY   76  56  49 S21G33    29.91F
PELLA *        PTSUNNY   73  61  64 S21G29    29.96S
PERRY *          N/A     73  59  60 S25       29.88S
$$

IAZ004>006-015-016-023>025-035-036-062200-
   NORTH CENTRAL IOWA

CITY           SKY/WX    TMP DP  RH WIND       PRES   REMARKS
ALGONA *       PTSUNNY   73  61  64 S24G35    29.86S
CLARION *      MOSUNNY   75  61  60 S28       29.87F
ESTHERVILLE    MOSUNNY   74  57  55 S28G40    29.82F
FORT DODGE *   PTSUNNY   75  57  53 S23       29.88S
MASON CITY     CLOUDY    73  64  73 SE18G26   29.90F
FOREST CITY *  SUNNY     72  59  64 S24G30    29.88F
IOWA FALLS *   CLOUDY    75  59  57 S21       29.91F
$$

IAZ007>011-017>019-026>030-037>042-050>054-066-062200-
   NORTHEAST IOWA

CITY           SKY/WX    TMP DP  RH WIND       PRES   REMARKS
CEDAR RAPIDS   TSTM      71  60  68 SW31G47   29.97R
CHARLES CITY * PTSUNNY   68  66  94 S18G24    29.94R
CLINTON *      MOSUNNY   81  55  41 S21       30.03F HX  80
DECORAH *      MOSUNNY   75  61  60 SE16G26   29.95F
DUBUQUE        MOSUNNY   79  55  43 S20G26    30.00F
MONTICELLO *   SUNNY     79  57  47 SE21G28   29.97F HX  80
OELWEIN *      CLOUDY    77  55  47 S26G38    29.98R
WATERLOO       CLOUDY    69  64  84 SE12      29.94F
$$

IAZ064-065-067-068-078-062200-
   EAST CENTRAL IOWA

CITY           SKY/WX    TMP DP  RH WIND       PRES   REMARKS
DAVENPORT      MOSUNNY   82  52  35 S17G28    30.00F HX  81
IOWA CITY      CLOUDY    70  60  70 SW14G26   29.99R
MT. PLEASANT * CLOUDY    72  61  68 SW23G36   30.00R
MUSCATINE *    SUNNY     82  57  42 S22G31    29.97F HX  82
QUAD CITIES    MOSUNNY   82  53  36 S15G22    29.99F HX  81
$$

IAZ062-063-075>077-085>089-095>099-062200-
   SOUTHEAST IOWA

CITY           SKY/WX    TMP DP  RH WIND       PRES   REMARKS
BURLINGTON     MOSUNNY   82  58  43 S16       29.98F HX  82
FAIRFIELD *    LGT RAIN  66  61  82 S15       30.00S
FORT MADISON * PTSUNNY   81  57  44 S17G25    29.99S HX  81
KEOKUK *       PTSUNNY   79  61  53 W23G32    30.00R HX  80
OSKALOOSA *    PTSUNNY   75  55  50 S20G25    29.98S
CENTERVILLE *  SUNNY     72  61  68 S18G26    29.99F
OTTUMWA        CLOUDY    73  56  54 SW16G24   29.97S
WASHINGTON *   CLOUDY    68 -38   1 SW13      29.99S
$$

ABBREVIATIONS USED IN REMARKS
   TC - TEMPERATURES IN CELSIUS
  WCI - WIND CHILL INDEX
   HX - HEAT INDEX
  VSB - VISIBILITY
$$



USA.gov is the U.S. government's official web portal to all federal, state and local government web resources and services.